Date,TemperatureHighF,TemperatureAvgF,TemperatureLowF,DewpointHighF,DewpointAvgF,DewpointLowF,HumidityHigh,HumidityAvg,HumidityLow,PressureMaxIn,PressureMinIn,WindSpeedMaxMPH,WindSpeedAvgMPH,GustSpeedMaxMPH,PrecipitationSumIn
2013-9-1,89,67,61,-100,-100,-100,0,0,100,0.00,40.00,0,-999,0,0.00
2013-9-2,92,74,58,-100,-100,-100,0,0,100,0.00,40.00,0,-999,0,0.00
2013-9-3,96,75,57,-100,-100,-100,0,0,100,0.00,40.00,0,-999,0,0.00
2013-9-4,95,74,64,-100,-100,-100,0,0,100,0.00,40.00,0,-999,0,0.00
2013-9-5,94,71,58,-100,-100,-100,0,0,100,0.00,40.00,0,-999,0,0.00
2013-9-6,72,64,59,-100,-100,-100,0,0,100,0.00,40.00,0,-999,0,0.00
2013-9-7,85,67,55,-100,-100,-100,0,0,100,0.00,40.00,0,-999,0,0.00
2013-9-8,90,72,55,-100,-100,-100,0,0,100,0.00,40.00,0,-999,0,0.00
2013-9-9,69,64,62,-100,-100,-100,0,0,100,0.00,40.00,0,-999,0,0.00
2013-9-10,70,65,60,-100,-100,-100,0,0,100,0.00,40.00,0,-999,0,0.00
2013-9-11,72,66,62,-100,-100,-100,0,0,100,0.00,40.00,0,-999,0,0.00
2013-9-12,82,65,57,-100,-100,-100,0,0,100,0.00,40.00,0,-999,0,0.00
2013-9-13,81,70,62,-100,-100,-100,0,0,100,0.00,40.00,0,-999,0,0.00
2013-9-14,75,64,59,-100,-100,-100,0,0,100,0.00,40.00,0,-999,0,0.00
2013-9-15,76,64,55,-100,-100,-100,0,0,100,0.00,40.00,0,-999,0,0.00
2013-9-16,83,65,57,-100,-100,-100,0,0,100,0.00,40.00,0,-999,0,0.00
2013-9-17,82,60,49,-100,-100,-100,0,0,100,0.00,40.00,0,-999,0,0.00
2013-9-18,59,57,55,-100,-100,-100,0,0,100,0.00,40.00,0,-999,0,0.00
2013-9-19,76,62,51,-100,-100,-100,0,0,100,0.00,40.00,0,-999,0,0.00
2013-9-20,83,50,38,-100,-100,-100,0,0,100,0.00,40.00,0,-999,0,0.00
2013-9-21,81,59,43,-100,-100,-100,0,0,100,0.00,40.00,0,-999,0,0.00
2013-9-22,65,56,50,-100,-100,-100,0,0,100,0.00,40.00,0,-999,0,0.00
2013-9-23,66,54,45,-100,-100,-100,0,0,100,0.00,40.00,0,-999,0,0.00
2013-9-24,76,56,36,-100,-100,-100,0,0,100,0.00,40.00,0,-999,0,0.00
2013-9-25,80,58,38,-100,-100,-100,0,0,100,0.00,40.00,0,-999,0,0.00
2013-9-26,81,74,63,-100,-100,-100,0,0,100,0.00,40.00,0,-999,0,0.00
2013-9-27,66,50,40,-100,-100,-100,0,0,100,0.00,40.00,0,-999,0,0.00
2013-9-28,65,48,34,-100,-100,-100,0,0,100,0.00,40.00,0,-999,0,0.00
2013-9-29,73,51,32,-100,-100,-100,0,0,100,0.00,40.00,0,-999,0,0.00
2013-9-30,80,56,36,-100,-100,-100,0,0,100,0.00,40.00,0,-999,0,0.00